Location: Chassagnes
(44.4047°N, 4.1657°E)
Time: 12:24:46
(UTC+00:00)

Cosmos 2360 - Pass Details

Date: 27 October 2020
Orbit: 847 x 855 km, 70.8° (Epoch: 23 November)

Event Time Altitude Azimuth Distance (km) Brightness Sun altitude
Rises 18:15:52 0° 185° (S) 3,410 7.4 -17.8°
Reaches altitude 10° 18:18:23 10° 179° (S) 2,478 6.6 -18.2°
Maximum altitude 18:23:47 46° 108° (ESE) 1,138 4.4 -19.2°
Enters shadow 18:26:14 29° 55° (NE) 1,516 5.1 -19.6°
